Waarnemingen

Advertentie
Mijn weer
Gemini, Nederland (6214): temperatuur & dauwpunt: 18.02.2017 09:00:00 - 24.02.2017 09:00:00 (CET)Gemini, Nederland (6214): windsnelheid & windstoten: 18.02.2017 09:00:00 - 24.02.2017 09:00:00 (CET)Gemini, Nederland (6214): windrichting: 18.02.2017 09:00:00 - 24.02.2017 09:00:00 (CET)Gemini, Nederland (6214): luchtdruk: 18.02.2017 09:00:00 - 24.02.2017 09:00:00 (CET)Gemini, Nederland (6214): zicht: 18.02.2017 09:00:00 - 24.02.2017 09:00:00 (CET)
Datum & Tijd tt [°C] td [°C] ff [km/u] ff [kn] fx [km/u] fx [kn] dd ppp [hPa] vv [km]
24.02.2017 09:00:00 4,8 -0,4 39 21 40 21 NNW 1006,9 10
24.02.2017 08:00:00 4,6 -1,1 28 15 36 19 N 1005,6 10
24.02.2017 07:00:00 4,3 -0,2 37 20 54 29 N 1004,2 10
24.02.2017 06:00:00 4,5 -1,0 46 25 58 31 N 1002,3 10
24.02.2017 05:00:00 4,3 0,0 55 30 61 33 NNW 1000,4 10
24.02.2017 04:00:00 4,9 -0,3 54 29 61 33 N 998,4 10
24.02.2017 03:00:00 5,1 -1,0 61 33 61 33 N 996,7 10
24.02.2017 02:00:00 4,9 -1,2 59 32 65 35 N 994,7 10
24.02.2017 01:00:00 4,8 -1,0 65 35 65 35 NNW 992,3 10
24.02.2017 00:00:00 4,2 1,1 61 33 72 39 N 990,0 10
23.02.2017 23:00:00 4,2 0,8 65 35 79 43 N 987,2 10
23.02.2017 22:00:00 3,9 1,3 63 34 76 41 N 983,9 8
23.02.2017 21:00:00 6,2 4,7 46 25 47 25 WNW 981,2 10
23.02.2017 20:00:00 5,6 4,2 41 22 43 23 WNW 979,7 10
23.02.2017 19:00:00 5,1 3,7 35 19 40 21 W 978,3 4,6
23.02.2017 18:00:00 5,3 4,0 35 19 61 33 WZW 978,0 8
23.02.2017 17:00:00 5,7 3,3 50 27 54 29 WZW 979,3 9
23.02.2017 16:00:00 6,2 4,0 52 28 65 35 WZW 980,3 8
23.02.2017 15:00:00 6,8 4,6 63 34 76 41 WZW 981,4 9
23.02.2017 14:00:00 7,0 5,2 61 33 68 37 ZW 982,7 10
23.02.2017 13:00:00 6,3 5,8 59 32 72 39 ZW 984,4 7
23.02.2017 12:00:00 6,6 5,8 52 28 54 29 ZW 987,0 7
23.02.2017 11:00:00 5,5 5,0 42 23 43 23 Z 988,6 9
23.02.2017 10:00:00 3,5 2,4 34 18 40 21 ZZO 990,3 6
23.02.2017 09:00:00 3,5 1,6 26 14 32 18 Z 992,9 10
23.02.2017 08:00:00 4,0 1,6 24 13 25 14 ZZW 995,2 10
23.02.2017 07:00:00 5,0 2,1 22 12 29 16 WZW 996,7 10
23.02.2017 06:00:00 5,7 3,9 26 14 29 16 WZW 997,6 10
23.02.2017 05:00:00 6,1 3,6 22 12 25 14 W 997,8 10
23.02.2017 04:00:00 6,2 3,6 28 15 36 19 W 998,7 10
23.02.2017 03:00:00 6,5 3,4 37 20 43 23 WNW 999,6 10
23.02.2017 02:00:00 6,6 3,3 41 22 47 25 WNW 999,8 10
23.02.2017 01:00:00 6,7 3,2 48 26 50 27 WNW 999,9 10
23.02.2017 00:00:00 6,6 3,4 48 26 54 29 WNW 999,8 10
22.02.2017 23:00:00 6,7 3,4 50 27 58 31 WNW 999,7 10
22.02.2017 22:00:00 6,8 3,3 55 30 58 31 WNW 1000,1 10
22.02.2017 21:00:00 6,7 3,4 48 26 58 31 W 999,7 10
22.02.2017 20:00:00 6,9 3,0 57 31 61 33 W 999,7 10
22.02.2017 19:00:00 6,8 2,9 55 30 58 31 W 999,5 10
22.02.2017 18:00:00 6,8 3,2 54 29 61 33 W 999,2 10
22.02.2017 17:00:00 7,0 3,3 59 32 - - W 999,2 10
22.02.2017 16:00:00 6,9 3,1 59 32 61 33 W 999,3 10
22.02.2017 15:00:00 6,7 3,5 52 28 54 29 W 999,4 10
22.02.2017 14:00:00 6,6 3,0 48 26 50 27 W 999,5 10
22.02.2017 13:00:00 6,7 2,4 46 25 47 25 W 999,6 10
22.02.2017 12:00:00 6,7 3,2 46 25 50 27 W 1000,1 10
22.02.2017 11:00:00 7,3 3,8 44 24 - - W 999,8 10
22.02.2017 10:00:00 7,6 2,8 46 25 50 27 WNW 999,6 10
22.02.2017 09:00:00 7,4 3,5 50 27 54 29 WNW 999,2 10
22.02.2017 08:00:00 7,2 4,9 46 25 68 37 W 998,0 10
22.02.2017 07:00:00 7,9 6,8 59 32 76 41 W 998,4 6
22.02.2017 06:00:00 7,9 6,3 65 35 68 37 W 998,4 9
22.02.2017 05:00:00 7,6 6,3 65 35 68 37 W 998,5 6
22.02.2017 04:00:00 7,8 6,3 68 37 68 37 W 999,1 7
22.02.2017 03:00:00 7,6 6,4 65 35 65 35 WZW 999,7 7
22.02.2017 02:00:00 7,4 6,8 61 33 - - WZW 1000,5 6
22.02.2017 01:00:00 7,5 7,0 61 33 61 33 WZW 1001,7 6
22.02.2017 00:00:00 7,2 6,9 55 30 61 33 ZW 1002,6 3,7
21.02.2017 23:00:00 6,4 5,7 48 26 54 29 ZW 1004,1 2,9
21.02.2017 22:00:00 6,3 4,4 46 25 54 29 ZW 1005,7 10
21.02.2017 21:00:00 5,4 4,1 37 20 43 23 ZW 1007,3 10
21.02.2017 20:00:00 5,4 4,1 28 15 32 18 ZW 1008,6 10
21.02.2017 19:00:00 5,4 4,3 18 10 29 16 WZW 1009,8 9
21.02.2017 18:00:00 5,7 4,1 15 8 29 16 WZW 1010,6 10
21.02.2017 17:00:00 6,4 4,3 21 11 29 16 W 1011,3 10
21.02.2017 16:00:00 6,8 4,3 22 12 25 14 W 1011,3 10
21.02.2017 15:00:00 7,3 4,3 28 15 32 18 WNW 1011,5 10
21.02.2017 14:00:00 7,3 4,3 28 15 32 18 WNW 1011,9 10
21.02.2017 13:00:00 7,7 4,2 24 13 29 16 WNW 1012,1 10
21.02.2017 12:00:00 7,9 4,1 34 18 40 21 WNW 1011,8 10
21.02.2017 11:00:00 7,9 4,3 35 19 40 21 WNW 1011,6 10
21.02.2017 10:00:00 7,5 4,5 41 22 43 23 NW 1010,9 10
21.02.2017 09:00:00 7,3 4,2 41 22 43 23 NW 1010,6 10
21.02.2017 08:00:00 6,8 4,4 41 22 43 23 NW 1010,0 10
21.02.2017 07:00:00 6,5 4,7 34 18 40 21 NW 1009,5 10
21.02.2017 06:00:00 6,9 4,8 35 19 36 19 NW 1009,3 10
21.02.2017 05:00:00 6,7 4,6 37 20 43 23 NW 1008,6 10
21.02.2017 04:00:00 7,1 4,7 46 25 47 25 WNW 1008,8 10
21.02.2017 03:00:00 7,3 4,3 44 24 47 25 WNW 1008,6 10
21.02.2017 02:00:00 7,1 4,7 39 21 43 23 WNW 1009,0 10
21.02.2017 01:00:00 7,3 5,3 31 17 36 19 WNW 1009,1 10
21.02.2017 00:00:00 7,6 5,9 31 17 32 18 WNW 1009,1 10
20.02.2017 23:00:00 7,8 6,2 24 13 43 23 WNW 1009,2 10
20.02.2017 22:00:00 8,1 6,3 44 24 47 25 WNW 1009,2 10
20.02.2017 21:00:00 8,2 6,5 46 25 50 27 WNW 1008,7 10
20.02.2017 20:00:00 8,2 6,9 48 26 54 29 WNW 1008,6 5
20.02.2017 19:00:00 8,6 6,7 55 30 58 31 WNW 1008,3 10
20.02.2017 18:00:00 8,5 6,8 55 30 58 31 W 1007,8 10
20.02.2017 17:00:00 8,5 6,9 55 30 58 31 W 1007,7 8
20.02.2017 16:00:00 8,3 6,7 55 30 58 31 W 1007,7 10
20.02.2017 15:00:00 7,8 6,5 50 27 50 27 W 1008,2 10
20.02.2017 14:00:00 7,2 6,4 50 27 50 27 W 1008,3 6
20.02.2017 13:00:00 6,9 6,3 46 25 50 27 W 1009,0 4,5
20.02.2017 12:00:00 7,2 6,3 44 24 43 23 W 1009,9 7
20.02.2017 11:00:00 7,1 6,3 42 23 47 25 W 1010,1 6
20.02.2017 10:00:00 6,9 6,3 42 23 47 25 W 1010,4 3,3
20.02.2017 09:00:00 6,8 6,3 44 24 50 27 W 1010,9 2,3
20.02.2017 08:00:00 6,4 6,0 39 21 40 21 WZW 1011,1 2,0
20.02.2017 07:00:00 6,1 5,4 39 21 43 23 WZW 1011,3 2,9
20.02.2017 06:00:00 6,7 5,6 39 21 43 23 WZW 1012,3 8
20.02.2017 05:00:00 6,6 5,4 42 23 43 23 WZW 1012,6 9
20.02.2017 04:00:00 6,4 5,1 41 22 43 23 WZW 1013,3 9
20.02.2017 03:00:00 6,5 4,9 37 20 40 21 WZW 1014,4 10
20.02.2017 02:00:00 6,1 4,9 26 14 32 18 WZW 1015,3 10
20.02.2017 01:00:00 5,8 4,6 22 12 32 18 WZW 1016,0 10
20.02.2017 00:00:00 5,7 4,6 22 12 32 18 W 1016,4 10
19.02.2017 23:00:00 5,8 4,8 18 10 29 16 W 1016,7 10
19.02.2017 22:00:00 5,7 5,1 15 8 22 12 WZW 1016,9 10
19.02.2017 21:00:00 5,1 5,0 13 7 22 12 W 1017,4 0,6
19.02.2017 20:00:00 6,1 5,0 24 13 25 14 W 1017,4 10
19.02.2017 19:00:00 6,8 4,8 22 12 25 14 WNW 1017,5 10
19.02.2017 18:00:00 6,7 5,1 16 9 29 16 WNW 1016,7 10
19.02.2017 17:00:00 6,7 5,2 21 11 29 16 WNW 1016,5 10
19.02.2017 16:00:00 6,9 5,4 28 15 32 18 WNW 1016,9 10
19.02.2017 15:00:00 7,7 5,2 21 11 29 16 WNW 1016,6 10
19.02.2017 14:00:00 8,0 5,2 31 17 36 19 WNW 1016,3 10
19.02.2017 13:00:00 8,2 5,1 29 16 36 19 WNW 1016,5 10
19.02.2017 12:00:00 8,0 5,0 28 15 36 19 WNW 1016,9 10
19.02.2017 11:00:00 7,3 5,3 29 16 36 19 WNW 1016,7 8
19.02.2017 10:00:00 6,8 5,2 29 16 36 19 W 1016,8 7
19.02.2017 09:00:00 6,3 5,1 34 18 36 19 W 1016,6 5
19.02.2017 08:00:00 6,0 5,0 29 16 36 19 W 1016,2 5
19.02.2017 07:00:00 6,1 5,1 37 20 40 21 W 1016,3 4,4
19.02.2017 06:00:00 6,0 5,0 29 16 36 19 W 1016,6 4,2
19.02.2017 05:00:00 5,8 4,7 34 18 40 21 WZW 1017,0 7
19.02.2017 04:00:00 5,5 4,7 35 19 43 23 WZW 1017,7 5
19.02.2017 03:00:00 5,1 4,9 46 25 47 25 WZW 1018,5 2,2
19.02.2017 02:00:00 4,7 4,2 41 22 43 23 ZW 1018,9 1,1
19.02.2017 01:00:00 5,0 4,6 42 23 43 23 WZW 1020,1 1,9
19.02.2017 00:00:00 5,1 4,2 41 22 43 23 WZW 1021,0 3,8
18.02.2017 23:00:00 4,8 4,2 46 25 47 25 WZW 1021,4 4,9
18.02.2017 22:00:00 4,3 4,0 39 21 47 25 WZW 1022,3 2,9
18.02.2017 21:00:00 4,1 3,9 42 23 47 25 ZW 1022,3 2,8
18.02.2017 20:00:00 4,2 4,1 35 19 47 25 WZW 1023,6 0,8
18.02.2017 19:00:00 4,2 4,1 35 19 43 23 ZW 1023,3 0,6
18.02.2017 18:00:00 3,9 3,6 35 19 40 21 ZW 1023,6 2,8
18.02.2017 17:00:00 3,5 3,4 31 17 40 21 ZW 1024,0 0,7
18.02.2017 16:00:00 3,1 2,9 25 14 36 19 ZW 1024,3 0,5
18.02.2017 15:00:00 3,2 3,0 26 14 32 18 ZW 1024,7 0,3
18.02.2017 14:00:00 2,8 2,6 26 14 32 18 ZW 1025,1 0,3
18.02.2017 13:00:00 2,7 2,4 26 14 29 16 ZW 1025,7 0,4
18.02.2017 12:00:00 3,1 2,7 24 13 29 16 ZW 1026,2 0,9
18.02.2017 11:00:00 3,1 2,7 21 11 25 14 ZW 1026,2 2,8
18.02.2017 10:00:00 2,9 2,4 18 10 25 14 ZW 1026,2 1,7
18.02.2017 09:00:00 2,9 2,6 15 8 25 14 WZW 1026,2 0,9

tt = temperatuur
td = dauwpunt
ff = windsnelheid
fx = windstoten
dd = windrichting
ppp = luchtdruk
vv = zicht

Weerstations in de omgeving